When you browse on this site, cookies collect data to enhance your experience and personalize the content and advertising you see.
Visit our Privacy Policy to learn more. By continuing to use the site, you agree to this use of cookies and data.
  • In Slovakia
  • List of Countries
  • For 7 days
  • Water Temperature
  • Weather Map
  • Weather Widgets
  • user-avatar
    Login

    Hourly Weather Sharan

    Today, 16 September, Monday

    Time Temperature Precipitation Wind Pressure Humidity
    00:00 +19°C° 0 mm 2 mps 588 mmHg 15%
    01:00 +18°C° 0 mm 2 mps 587 mmHg 17%
    02:00 +18°C° 0 mm 1 mps 587 mmHg 18%
    03:00 +16°C° 0 mm 1 mps 586 mmHg 19%
    04:00 +15°C° 0 mm 1 mps 586 mmHg 20%
    05:00 +15°C° 0 mm 1 mps 586 mmHg 21%
    06:00 +16°C° 0 mm 1 mps 587 mmHg 20%
    07:00 +18°C° 0 mm 1 mps 588 mmHg 18%
    08:00 +20°C° 0 mm 1 mps 589 mmHg 17%
    09:00 +21°C° 0 mm 1 mps 589 mmHg 14%
    10:00 +23°C° 0 mm 2 mps 589 mmHg 11%
    11:00 +25°C° 0 mm 3 mps 590 mmHg 8%
    12:00 +26°C° 0 mm 3 mps 590 mmHg 6%
    13:00 +27°C° 0 mm 3 mps 590 mmHg 5%
    14:00 +28°C° 0 mm 3 mps 589 mmHg 4%
    15:00 +28°C° 0 mm 3 mps 589 mmHg 4%
    16:00 +29°C° 0 mm 3 mps 589 mmHg 3%
    17:00 +29°C° 0 mm 3 mps 589 mmHg 3%
    18:00 +27°C° 0 mm 4 mps 588 mmHg 5%
    19:00 +25°C° 0 mm 4 mps 588 mmHg 6%
    20:00 +23°C° 0 mm 4 mps 588 mmHg 7%
    21:00 +21°C° 0 mm 3 mps 587 mmHg 8%
    22:00 +20°C° 0 mm 2 mps 587 mmHg 10%
    23:00 +19°C° 0 mm 1 mps 587 mmHg 11%

    Tomorrow, 17 September, Tuesday

    Time Temperature Precipitation Wind Pressure Humidity
    00:00 +18°C° 0 mm 1 mps 586 mmHg 12%
    01:00 +17°C° 0 mm 2 mps 586 mmHg 12%
    02:00 +16°C° 0 mm 2 mps 586 mmHg 12%
    03:00 +16°C° 0 mm 2 mps 586 mmHg 14%
    04:00 +14°C° 0 mm 3 mps 586 mmHg 15%
    05:00 +13°C° 0 mm 3 mps 586 mmHg 17%
    06:00 +14°C° 0 mm 3 mps 586 mmHg 17%
    07:00 +16°C° 0 mm 3 mps 587 mmHg 17%
    08:00 +17°C° 0 mm 3 mps 588 mmHg 17%
    09:00 +19°C° 0 mm 3 mps 588 mmHg 13%
    10:00 +21°C° 0 mm 3 mps 589 mmHg 10%
    11:00 +24°C° 0 mm 3 mps 590 mmHg 7%
    12:00 +25°C° 0 mm 3 mps 590 mmHg 6%
    13:00 +26°C° 0 mm 2 mps 590 mmHg 5%
    14:00 +27°C° 0 mm 2 mps 590 mmHg 3%
    15:00 +28°C° 0 mm 2 mps 590 mmHg 3%
    16:00 +28°C° 0 mm 2 mps 590 mmHg 3%
    17:00 +28°C° 0 mm 1 mps 590 mmHg 3%
    18:00 +26°C° 0 mm 1 mps 589 mmHg 4%
    19:00 +24°C° 0 mm 1 mps 588 mmHg 5%
    20:00 +22°C° 0 mm 1 mps 588 mmHg 6%
    21:00 +21°C° 0 mm 1 mps 588 mmHg 10%
    22:00 +20°C° 0 mm 1 mps 587 mmHg 13%
    23:00 +19°C° 0 mm 1 mps 587 mmHg 16%

    Day after tomorrow, 18 September, Wednesday

    Time Temperature Precipitation Wind Pressure Humidity
    00:00 +19°C° 0 mm 1 mps 587 mmHg 21%
    01:00 +18°C° 0 mm 1 mps 587 mmHg 25%
    02:00 +16°C° 0 mm 1 mps 587 mmHg 30%
    03:00 +16°C° 0 mm 1 mps 586 mmHg 31%
    04:00 +14°C° 0 mm 0 mps 586 mmHg 33%
    05:00 +13°C° 0 mm 0 mps 586 mmHg 34%
    06:00 +15°C° 0 mm 0 mps 587 mmHg 30%
    07:00 +17°C° 0 mm 0 mps 589 mmHg 27%
    08:00 +19°C° 0 mm 0 mps 590 mmHg 23%
    09:00 +21°C° 0 mm 0 mps 591 mmHg 19%
    10:00 +22°C° 0 mm 0 mps 591 mmHg 14%
    11:00 +24°C° 0 mm 0 mps 592 mmHg 10%
    12:00 +27°C° 0 mm 1 mps 592 mmHg 8%
    13:00 +28°C° 0 mm 1 mps 592 mmHg 6%
    14:00 +29°C° 0 mm 2 mps 592 mmHg 5%
    15:00 +30°C° 0 mm 2 mps 592 mmHg 4%
    16:00 +30°C° 0 mm 3 mps 592 mmHg 4%
    17:00 +30°C° 0 mm 3 mps 591 mmHg 4%
    18:00 +28°C° 0 mm 3 mps 591 mmHg 4%
    19:00 +26°C° 0 mm 3 mps 591 mmHg 5%
    20:00 +24°C° 0 mm 3 mps 590 mmHg 5%
    21:00 +23°C° 0 mm 2 mps 590 mmHg 7%
    22:00 +21°C° 0 mm 2 mps 589 mmHg 8%
    23:00 +20°C° 0 mm 2 mps 589 mmHg 10%

    19 September, Thursday

    Time Temperature Precipitation Wind Pressure Humidity
    00:00 +20°C° 0 mm 1 mps 589 mmHg 11%
    01:00 +19°C° 0 mm 1 mps 588 mmHg 12%
    02:00 +16°C° 0 mm 0 mps 588 mmHg 13%
    03:00 +15°C° 0 mm 0 mps 587 mmHg 14%
    04:00 +14°C° 0 mm 0 mps 587 mmHg 14%
    05:00 +14°C° 0 mm 0 mps 587 mmHg 15%
    06:00 +16°C° 0 mm 0 mps 588 mmHg 14%
    07:00 +18°C° 0 mm 0 mps 590 mmHg 13%
    08:00 +22°C° 0 mm 1 mps 591 mmHg 13%
    09:00 +23°C° 0 mm 1 mps 592 mmHg 11%
    10:00 +25°C° 0 mm 1 mps 592 mmHg 10%
    11:00 +26°C° 0 mm 1 mps 592 mmHg 8%
    12:00 +27°C° 0 mm 1 mps 592 mmHg 7%
    13:00 +28°C° 0 mm 1 mps 592 mmHg 6%
    14:00 +29°C° 0 mm 1 mps 592 mmHg 5%
    15:00 +29°C° 0 mm 1 mps 592 mmHg 5%
    16:00 +29°C° 0 mm 2 mps 592 mmHg 4%
    17:00 +30°C° 0 mm 2 mps 591 mmHg 4%
    18:00 +27°C° 0 mm 2 mps 591 mmHg 10%
    19:00 +25°C° 0 mm 2 mps 591 mmHg 17%
    20:00 +23°C° 0 mm 2 mps 590 mmHg 23%
    21:00 +21°C° 0 mm 2 mps 590 mmHg 31%
    22:00 +21°C° 0 mm 2 mps 590 mmHg 40%
    23:00 +20°C° 0 mm 2 mps 590 mmHg 48%

    20 September, Friday

    Time Temperature Precipitation Wind Pressure Humidity
    00:00 +20°C° 0 mm 1 mps 589 mmHg 51%
    01:00 +19°C° 0 mm 1 mps 589 mmHg 55%
    02:00 +18°C° 0 mm 1 mps 588 mmHg 58%
    03:00 +18°C° 0 mm 1 mps 588 mmHg 58%
    04:00 +18°C° 0 mm 1 mps 588 mmHg 58%
    05:00 +16°C° 0 mm 1 mps 588 mmHg 58%
    06:00 +18°C° 0 mm 1 mps 589 mmHg 52%
    07:00 +20°C° 0 mm 1 mps 590 mmHg 46%
    08:00 +21°C° 0 mm 1 mps 590 mmHg 40%
    09:00 +22°C° 0 mm 1 mps 591 mmHg 34%
    10:00 +23°C° 0 mm 1 mps 591 mmHg 29%
    11:00 +25°C° 0 mm 1 mps 591 mmHg 23%
    12:00 +26°C° 0 mm 1 mps 591 mmHg 20%
    13:00 +27°C° 0 mm 2 mps 591 mmHg 17%
    14:00 +28°C° 0 mm 2 mps 591 mmHg 14%
    15:00 +28°C° 0 mm 2 mps 591 mmHg 14%
    16:00 +28°C° 0 mm 1 mps 590 mmHg 13%
    17:00 +28°C° 0 mm 1 mps 590 mmHg 12%
    18:00 +27°C° 0 mm 1 mps 590 mmHg 14%
    19:00 +25°C° 0 mm 1 mps 590 mmHg 16%
    20:00 +24°C° 0 mm 1 mps 589 mmHg 17%
    21:00 +23°C° 0 mm 1 mps 589 mmHg 25%
    22:00 +21°C° 0 mm 2 mps 589 mmHg 32%
    23:00 +20°C° 0 mm 2 mps 589 mmHg 39%

    21 September, Saturday

    Time Temperature Precipitation Wind Pressure Humidity
    00:00 +20°C° 0 mm 1 mps 588 mmHg 44%
    01:00 +20°C° 0 mm 1 mps 588 mmHg 49%
    02:00 +17°C° 0 mm 0 mps 587 mmHg 54%
    03:00 +16°C° 0 mm 0 mps 587 mmHg 56%
    04:00 +15°C° 0 mm 0 mps 587 mmHg 58%
    05:00 +15°C° 0 mm 0 mps 587 mmHg 59%
    06:00 +16°C° 0 mm 0 mps 588 mmHg 53%
    07:00 +18°C° 0 mm 0 mps 589 mmHg 46%
    08:00 +19°C° 0 mm 0 mps 590 mmHg 40%
    09:00 +20°C° 0 mm 0 mps 590 mmHg 34%
    10:00 +22°C° 0 mm 0 mps 591 mmHg 28%
    11:00 +24°C° 0 mm 0 mps 591 mmHg 22%
    12:00 +27°C° 0 mm 1 mps 591 mmHg 19%
    13:00 +28°C° 0 mm 1 mps 591 mmHg 15%
    14:00 +29°C° 0 mm 2 mps 591 mmHg 12%
    15:00 +29°C° 0 mm 2 mps 591 mmHg 11%
    16:00 +29°C° 0 mm 2 mps 591 mmHg 10%
    17:00 +30°C° 0 mm 2 mps 590 mmHg 10%
    18:00 +28°C° 0 mm 2 mps 590 mmHg 10%
    19:00 +26°C° 0 mm 2 mps 590 mmHg 11%
    20:00 +25°C° 0 mm 2 mps 590 mmHg 12%
    21:00 +24°C° 0 mm 2 mps 589 mmHg 15%
    22:00 +22°C° 0 mm 3 mps 589 mmHg 18%
    23:00 +21°C° 0 mm 3 mps 589 mmHg 20%
    Show more